Time,TemperatureF,DewpointF,PressureIn,WindDirection,WindDirectionDegrees,WindSpeedMPH,WindSpeedGustMPH,Humidity,HourlyPrecipIn,Conditions,Clouds,dailyrainin,SoftwareType,DateUTC
2013-08-28 13:14:00,78.0,67.0,29.79,SE,146,0.0,7.0,69,0.00,,,0.00,,2013-08-28 17:14:00,
2013-08-28 13:24:00,79.0,68.0,29.79,SSE,150,0.0,6.0,70,0.00,,,0.00,,2013-08-28 17:24:00,
2013-08-28 13:52:00,78.0,68.0,29.79,SSE,161,1.0,9.0,72,0.00,,,0.00,,2013-08-28 17:52:00,
2013-08-28 14:12:00,78.0,68.0,29.79,South,170,1.0,4.0,71,0.00,,,0.00,,2013-08-28 18:12:00,
2013-08-28 14:22:00,78.0,68.0,29.79,South,169,0.0,4.0,71,0.00,,,0.00,,2013-08-28 18:22:00,
2013-08-28 14:53:00,78.0,68.0,29.79,South,170,1.0,4.0,72,0.00,,,0.00,,2013-08-28 18:53:00,
2013-08-28 15:12:00,78.0,69.0,29.79,SW,229,2.0,4.0,75,0.00,,,0.00,,2013-08-28 19:12:00,
2013-08-28 15:22:00,78.0,70.0,29.79,SW,232,2.0,5.0,77,0.00,,,0.00,,2013-08-28 19:22:00,
2013-08-28 15:42:00,77.0,70.0,29.78,SW,227,1.0,5.0,78,0.00,,,0.00,,2013-08-28 19:42:00,
2013-08-28 15:52:00,77.0,70.0,29.78,SW,228,2.0,5.0,79,0.00,,,0.00,,2013-08-28 19:52:00,
2013-08-28 16:12:00,77.0,70.0,29.78,West,272,2.0,7.0,79,0.00,,,0.00,,2013-08-28 20:12:00,
2013-08-28 16:23:00,77.0,70.0,29.78,West,273,0.0,5.0,79,0.00,,,0.00,,2013-08-28 20:23:00,
2013-08-28 16:52:00,78.0,70.0,29.77,West,275,0.0,5.0,77,0.00,,,0.00,,2013-08-28 20:52:00,
2013-08-28 17:12:00,77.0,69.0,29.76,West,275,2.0,5.0,77,0.00,,,0.00,,2013-08-28 21:12:00,
2013-08-28 17:22:00,77.0,70.0,29.76,West,275,0.0,1.0,78,0.00,,,0.00,,2013-08-28 21:22:00,
2013-08-28 17:57:00,77.0,70.0,29.78,West,276,0.0,0.0,78,0.00,,,0.00,,2013-08-28 21:57:00,
2013-08-28 18:15:00,77.0,69.0,29.76,West,276,0.0,0.0,77,0.00,,,0.00,,2013-08-28 22:15:00,
2013-08-28 18:25:00,77.0,70.0,29.76,West,276,0.0,0.0,79,0.00,,,0.00,,2013-08-28 22:25:00,
2013-08-28 18:54:00,77.0,70.0,29.77,West,276,0.0,1.0,80,0.00,,,0.00,,2013-08-28 22:54:00,
2013-08-28 19:13:00,76.0,70.0,29.77,West,276,0.0,0.0,83,0.00,,,0.00,,2013-08-28 23:13:00,
2013-08-28 19:22:00,76.0,70.0,29.77,West,276,0.0,0.0,83,0.00,,,0.00,,2013-08-28 23:22:00,
2013-08-28 19:53:00,75.0,70.0,29.78,West,276,0.0,0.0,84,0.00,,,0.00,,2013-08-28 23:53:00,
2013-08-28 20:12:00,75.0,71.0,29.78,West,276,0.0,1.0,86,0.00,,,0.00,,2013-08-29 00:12:00,
2013-08-28 21:13:00,74.0,71.0,29.79,West,276,0.0,2.0,89,0.00,,,0.00,,2013-08-29 01:13:00,
2013-08-28 21:22:00,74.0,71.0,29.79,West,276,0.0,0.0,89,0.00,,,0.00,,2013-08-29 01:22:00,
2013-08-28 21:42:00,73.0,70.0,29.79,West,276,0.0,0.0,90,0.00,,,0.00,,2013-08-29 01:42:00,
2013-08-28 21:52:00,73.0,70.0,29.79,West,276,1.0,3.0,91,0.00,,,0.00,,2013-08-29 01:52:00,
2013-08-28 22:12:00,73.0,71.0,29.79,West,276,0.0,3.0,92,0.00,,,0.00,,2013-08-29 02:12:00,
2013-08-28 22:22:00,73.0,71.0,29.79,NE,38,0.0,3.0,92,0.00,,,0.00,,2013-08-29 02:22:00,
2013-08-28 23:11:00,73.0,71.0,29.81,NE,38,0.0,1.0,93,0.00,,,0.00,,2013-08-29 03:11:00,
2013-08-28 23:23:00,73.0,71.0,29.81,NE,38,0.0,0.0,93,0.00,,,0.00,,2013-08-29 03:23:00,
2013-08-28 23:57:00,73.0,71.0,29.81,NE,38,0.0,0.0,94,0.00,,,0.00,,2013-08-29 03:57:00,